Terminal Aerodrome Forecast
Issued by NWS

Home | Current Version | Previous Version | Text Only | Print | Product List | Glossary On
Versions: 1 2 3 4 5 6 7 8 9 10 11 12 13 14 15 16 17 18 19 20 21 22 23 24 25
000
FTUS43 KGLD 230928 AAB
TAFMCK
TAF AMD
KMCK 230928Z 2309/2406 32020G30KT 3SM -SN BKN035
     FM231600 34025G40KT 1SM -SN BLSN SCT007 OVC015
     FM231800 35028G40KT 3SM -SN BLSN BKN015
     FM232200 34027G37KT 6SM -SN BLSN BKN025
     FM240100 34020KT P6SM BKN050=

USA.gov is the U.S. government's official web portal to all federal, state and local government web resources and services.